#timestamp,LO_Frequency,Hit,StdDev 
1579946415.2,286046999.9,N
1579946435.1,286047000.4,N
1579946436.0,286047000.4,N
1579946455.8,286047002.1,N
1579946475.7,286047002.4,N
1579946495.5,286047002.2,N
1579946515.3,286047002.6,N
1579946535.2,286047001.3,N
1579946555.0,286047003.2,N
1579946555.9,286047003.2,N
1579946575.7,286047004.0,N
1579946595.6,286047001.9,N
1579946615.4,286047005.5,N
1579946635.3,286047005.7,N
1579946655.1,286047005.9,N
1579946675.9,286047005.6,N
1579946695.7,286047001.3,N
1579946715.5,286047002.6,N
1579946735.4,286047004.3,N
1579946755.2,286047002.5,N
1579946775.0,286047001.6,N
1579946775.9,286047001.6,N
1579946795.8,286047002.8,N
1579946815.6,286047002.3,N
1579946835.5,286047000.0,N
1579946855.3,286047000.9,N
1579946875.1,286047000.9,N
1579946895.9,286046999.9,N
1579946915.7,286047002.8,N
1579946935.6,286047004.4,N
1579946955.4,286047001.8,N
1579946975.2,286047002.4,N
1579946995.1,286046999.7,N
1579946996.0,286046999.7,N
1579947015.8,286047002.3,N
1579947035.6,286046999.8,N
1579947055.5,286047000.2,N
1579947075.3,286047000.3,N
1579947095.8,286047000.2,N
1579947115.6,286047000.9,N
1579947135.5,286047001.0,N
1579947155.3,286047002.7,N
1579947175.1,286046998.3,N
1579947195.9,286046996.7,N
1579947215.7,286047000.6,N
1579947235.6,286047000.6,N
1579947255.4,286047000.4,N
1579947275.2,286047001.6,N
1579947295.1,286047004.4,N
1579947296.0,286047004.4,N
1579947315.8,286047002.3,N
1579947335.6,286047000.4,N
1579947355.5,286046999.7,N
1579947375.3,286047001.9,N
1579947395.2,286047000.0,N
1579947415.9,286046998.5,N
1579947435.7,286047000.9,N
1579947455.6,286046999.9,N
1579947475.4,286047003.1,N
1579947495.2,286047003.1,N
1579947515.1,286047004.2,N
1579947516.0,286047004.2,N
1579947535.8,286047002.7,N
1579947555.7,286047003.7,N
1579947575.5,286047004.0,N
1579947595.3,286047002.1,N
1579947615.2,286046999.8,N
1579947635.0,286047000.5,N
1579947635.9,286047000.5,N
1579947655.8,286046999.7,N
1579947675.6,286047002.7,N
1579947695.4,286047003.9,N
1579947715.3,286047004.4,N
1579947735.1,286047001.6,N
1579947755.8,286047000.8,N
1579947775.7,286047001.2,N
1579947795.5,286047000.4,N
1579947815.4,286047001.6,N
1579947835.2,286047002.0,N
1579947855.0,286047002.6,N
1579947855.9,286047002.6,N
1579947875.8,286047003.6,N
1579947895.6,286047001.5,N
1579947915.5,286047000.5,N
1579947935.3,286047002.4,N
1579947955.1,286047000.1,N
1579947975.9,286046998.7,N
1579947995.7,286046998.3,N
1579948015.5,286047001.1,N
1579948035.4,286046999.7,N
1579948055.2,286047002.4,N
1579948075.1,286047003.1,N
1579948076.0,286047003.1,N
1579948095.8,286047003.6,N
1579948115.6,286047004.8,Y
1579948135.5,286047003.6,P
1579948155.3,286047003.7,P
1579948175.1,286047002.4,N
1579948195.9,286047000.0,N
1579948215.7,286047002.0,N
1579948235.6,286047002.4,N
1579948255.4,286047004.2,Y
1579948275.2,286047003.5,P
1579948295.1,286047003.9,P
1579948296.0,286047003.9,P
1579948315.8,286047005.3,Y
1579948335.7,286047003.7,P
1579948355.5,286047002.5,P
1579948375.3,286047000.6,N
1579948395.2,286047000.6,N
1579948415.0,286046999.6,N
1579948415.9,286046999.6,N
1579948435.7,286046997.1,N
1579948455.6,286046996.2,N
1579948475.4,286046996.4,N
1579948495.3,286046995.5,N
1579948515.1,286046995.1,N
1579948516.0,286046995.1,N
1579948535.8,286046997.9,N
1579948555.7,286046999.3,N
1579948575.5,286046999.3,N
1579948595.4,286046995.6,N
1579948615.2,286046995.9,N
1579948635.0,286046996.4,N
1579948635.9,286046996.4,N
1579948655.8,286046994.9,N
1579948675.6,286046995.1,N
1579948695.4,286046996.8,N
1579948715.3,286046995.9,N
1579948735.1,286046996.4,N
1579948755.9,286046995.0,N
1579948775.7,286046997.9,N
1579948795.5,286046999.1,N
1579948815.4,286046999.0,N
1579948835.2,286046998.0,N
1579948855.0,286046997.6,N
1579948855.9,286046997.6,N
1579948875.8,286046995.6,N
1579948895.6,286046996.1,N
1579948915.5,286046994.9,Y
1579948935.3,286046999.0,P
1579948955.1,286046997.2,N
1579948975.9,286046998.7,N
1579948995.7,286046999.6,N
1579949015.5,286046998.1,N
1579949035.4,286046998.6,N
1579949055.2,286046998.1,N
1579949075.1,286047001.6,N
1579949076.0,286047001.6,N
1579949095.8,286047004.0,N
1579949115.6,286047002.8,N
1579949135.5,286046999.0,N
1579949155.3,286047000.6,N
1579949175.1,286047000.4,N
1579949195.9,286047003.5,N
1579949215.7,286047000.2,N
1579949235.6,286046998.9,N
1579949255.4,286046998.1,N
1579949275.2,286047000.0,N
1579949295.1,286047000.7,N
1579949296.0,286047000.7,N
1579949315.8,286046996.9,N
1579949335.7,286046999.3,N
1579949355.5,286047001.2,N
1579949375.3,286047000.6,N
1579949395.2,286046998.1,N
1579949415.0,286046998.6,N
1579949415.9,286046998.6,N
1579949435.7,286047000.6,N
1579949455.6,286047000.8,N
1579949475.4,286047000.7,N
1579949495.3,286047000.6,N
1579949515.1,286047000.8,N
1579949516.0,286047000.8,N
1579949535.8,286047000.6,N
1579949555.7,286046998.1,N
1579949575.5,286046998.1,N
1579949595.4,286046999.2,N
1579949615.2,286046996.6,N
1579949635.0,286046996.5,N
1579949635.9,286046996.5,N
1579949655.8,286046996.5,N
1579949675.6,286046999.4,N
1579949695.4,286047001.2,N
1579949715.3,286047001.2,N
1579949735.1,286047002.5,N
1579949755.9,286047002.3,N
1579949775.7,286047002.5,N
1579949795.5,286047000.6,N
1579949815.4,286047004.2,N
1579949835.2,286047005.9,N
1579949855.0,286047001.9,N
1579949855.9,286047001.9,N
1579949875.8,286047002.0,N
1579949895.6,286047005.9,N
1579949915.5,286047001.7,N
1579949935.3,286047000.2,N
1579949955.2,286047001.8,N
1579949975.9,286047002.2,N
1579949995.7,286046998.5,N
